Terminal Aerodrome Forecast
Issued by NWS St Louis, MO

Home | Current Version | Previous Version | Text Only | Print | Product List | Glossary On
Versions: 1 2 3 4 5 6 7 8 9 10 11 12 13 14 15 16 17 18 19 20 21 22 23
000
FTUS43 KLSX 181723
TAFSTL
TAF
KSTL 181723Z 1818/1924 VRB04KT P6SM SCT050 SCT250
     FM190000 09004KT P6SM FEW070
     FM191600 26004KT P6SM FEW050 FEW200=

USA.gov is the U.S. government's official web portal to all federal, state and local government web resources and services.